Time,TemperatureF,DewpointF,PressureIn,WindDirection,WindDirectionDegrees,WindSpeedMPH,WindSpeedGustMPH,Humidity,HourlyPrecipIn,Conditions,Clouds,dailyrainin,SolarRadiationWatts/m^2,SoftwareType,DateUTC
2013-06-10 00:09:00,60.5,57.0,30.11,North,5,0.0,-999.0,87,-99.99,,,0.00,0,weatherlink.com 1.10,2013-06-10 04:09:00,
2013-06-10 00:24:00,60.4,57.0,30.11,North,5,2.0,-999.0,87,-99.99,,,0.00,0,weatherlink.com 1.10,2013-06-10 04:24:00,
2013-06-10 00:39:00,60.4,57.0,30.11,North,5,1.0,-999.0,87,-99.99,,,0.00,0,weatherlink.com 1.10,2013-06-10 04:39:00,
2013-06-10 00:54:00,60.5,56.0,30.11,North,5,0.0,-999.0,86,-99.99,,,0.00,0,weatherlink.com 1.10,2013-06-10 04:54:00,
2013-06-10 01:09:00,60.4,56.0,30.10,North,5,1.0,-999.0,86,-99.99,,,0.00,0,weatherlink.com 1.10,2013-06-10 05:09:00,
2013-06-10 01:25:00,60.9,56.0,30.10,North,10,2.0,-999.0,84,-99.99,,,0.00,0,weatherlink.com 1.10,2013-06-10 05:25:00,
2013-06-10 01:40:00,60.7,56.0,30.10,North,10,3.0,-999.0,84,-99.99,,,0.00,0,weatherlink.com 1.10,2013-06-10 05:40:00,
2013-06-10 01:55:00,60.4,56.0,30.09,North,10,4.0,-999.0,86,-99.99,,,0.00,0,weatherlink.com 1.10,2013-06-10 05:55:00,
2013-06-10 02:10:00,60.0,56.0,30.09,North,10,3.0,-999.0,86,-99.99,,,0.00,0,weatherlink.com 1.10,2013-06-10 06:10:00,
2013-06-10 02:25:00,59.6,56.0,30.09,NNE,29,5.0,-999.0,87,-99.99,,,0.00,0,weatherlink.com 1.10,2013-06-10 06:25:00,
2013-06-10 02:40:00,59.6,56.0,30.08,NE,51,4.0,-999.0,88,-99.99,,,0.00,0,weatherlink.com 1.10,2013-06-10 06:40:00,
2013-06-10 02:55:00,59.9,56.0,30.08,East,90,5.0,-999.0,87,-99.99,,,0.00,0,weatherlink.com 1.10,2013-06-10 06:55:00,
2013-06-10 03:10:00,59.3,56.0,30.08,East,90,7.0,-999.0,88,-99.99,,,0.00,0,weatherlink.com 1.10,2013-06-10 07:10:00,
2013-06-10 03:25:00,59.6,56.0,30.08,East,94,6.0,-999.0,89,-99.99,,,0.00,0,weatherlink.com 1.10,2013-06-10 07:25:00,
2013-06-10 03:40:00,59.7,56.0,30.07,East,90,5.0,-999.0,88,-99.99,,,0.00,0,weatherlink.com 1.10,2013-06-10 07:40:00,
2013-06-10 03:55:00,59.6,56.0,30.06,ESE,102,6.0,-999.0,89,-99.99,,,0.00,0,weatherlink.com 1.10,2013-06-10 07:55:00,
2013-06-10 04:10:00,59.3,56.0,30.06,East,89,3.0,-999.0,89,-99.99,,,0.00,0,weatherlink.com 1.10,2013-06-10 08:10:00,
2013-06-10 04:25:00,59.2,56.0,30.06,East,95,4.0,-999.0,90,-99.99,,,0.00,0,weatherlink.com 1.10,2013-06-10 08:25:00,
2013-06-10 04:40:00,59.3,56.0,30.05,East,91,5.0,-999.0,90,-99.99,,,0.00,0,weatherlink.com 1.10,2013-06-10 08:40:00,
2013-06-10 04:55:00,59.3,56.0,30.05,ESE,113,6.0,-999.0,89,-99.99,,,0.00,0,weatherlink.com 1.10,2013-06-10 08:55:00,
2013-06-10 05:10:00,59.3,56.0,30.05,ESE,115,7.0,-999.0,89,-99.99,,,0.00,0,weatherlink.com 1.10,2013-06-10 09:10:00,
2013-06-10 05:25:00,59.4,56.0,30.04,ESE,106,5.0,-999.0,89,-99.99,,,0.00,0,weatherlink.com 1.10,2013-06-10 09:25:00,
2013-06-10 05:40:00,59.3,56.0,30.04,East,99,4.0,-999.0,89,-99.99,,,0.00,5,weatherlink.com 1.10,2013-06-10 09:40:00,
2013-06-10 05:55:00,59.2,56.0,30.04,East,100,4.0,-999.0,90,-99.99,,,0.00,12,weatherlink.com 1.10,2013-06-10 09:55:00,
2013-06-10 06:10:00,59.1,56.0,30.04,ESE,102,3.0,-999.0,90,-99.99,,,0.00,23,weatherlink.com 1.10,2013-06-10 10:10:00,
2013-06-10 06:25:00,59.1,56.0,30.04,ESE,109,4.0,-999.0,90,-99.99,,,0.00,70,weatherlink.com 1.10,2013-06-10 10:25:00,
2013-06-10 06:40:00,59.8,57.0,30.03,ESE,103,4.0,-999.0,89,-99.99,,,0.00,74,weatherlink.com 1.10,2013-06-10 10:40:00,
2013-06-10 06:55:00,60.2,57.0,30.04,East,100,3.0,-999.0,88,-99.99,,,0.00,76,weatherlink.com 1.10,2013-06-10 10:55:00,
2013-06-10 07:10:00,60.5,57.0,30.02,East,96,2.0,-999.0,87,-99.99,,,0.00,83,weatherlink.com 1.10,2013-06-10 11:10:00,
2013-06-10 07:25:00,61.2,57.0,30.02,ESE,102,5.0,-999.0,87,-99.99,,,0.00,137,weatherlink.com 1.10,2013-06-10 11:25:00,
2013-06-10 07:40:00,62.3,58.0,30.02,ESE,111,7.0,-999.0,85,-99.99,,,0.00,178,weatherlink.com 1.10,2013-06-10 11:40:00,
2013-06-10 07:55:00,63.1,58.0,30.01,East,95,6.0,-999.0,83,-99.99,,,0.00,137,weatherlink.com 1.10,2013-06-10 11:55:00,
2013-06-10 08:10:00,63.9,58.0,30.01,ESE,105,2.0,-999.0,82,-99.99,,,0.00,141,weatherlink.com 1.10,2013-06-10 12:10:00,
2013-06-10 08:25:00,64.3,58.0,30.00,East,84,7.0,-999.0,80,-99.99,,,0.00,142,weatherlink.com 1.10,2013-06-10 12:25:00,
2013-06-10 08:40:00,64.7,59.0,30.00,ESE,108,7.0,-999.0,81,-99.99,,,0.00,167,weatherlink.com 1.10,2013-06-10 12:40:00,
2013-06-10 08:55:00,65.2,59.0,30.00,SE,128,10.0,-999.0,80,-99.99,,,0.00,227,weatherlink.com 1.10,2013-06-10 12:55:00,
2013-06-10 09:11:00,65.9,59.0,30.00,East,88,4.0,-999.0,78,-99.99,,,0.00,232,weatherlink.com 1.10,2013-06-10 13:11:00,
2013-06-10 09:26:00,66.6,60.0,30.00,ENE,78,12.0,-999.0,78,-99.99,,,0.00,255,weatherlink.com 1.10,2013-06-10 13:26:00,
2013-06-10 09:41:00,67.4,60.0,30.00,East,87,6.0,-999.0,77,-99.99,,,0.00,246,weatherlink.com 1.10,2013-06-10 13:41:00,
2013-06-10 09:56:00,67.5,60.0,29.99,ESE,103,7.0,-999.0,77,-99.99,,,0.00,192,weatherlink.com 1.10,2013-06-10 13:56:00,
2013-06-10 10:11:00,67.2,61.0,29.98,SE,138,5.0,-999.0,79,-99.99,,,0.00,172,weatherlink.com 1.10,2013-06-10 14:11:00,
2013-06-10 10:26:00,67.0,60.0,29.98,ESE,111,8.0,-999.0,79,-99.99,,,0.00,232,weatherlink.com 1.10,2013-06-10 14:26:00,
2013-06-10 10:41:00,66.8,60.0,29.98,East,98,7.0,-999.0,79,-99.99,,,0.00,227,weatherlink.com 1.10,2013-06-10 14:41:00,
2013-06-10 10:56:00,66.8,60.0,29.98,East,90,10.0,-999.0,80,-99.99,,,0.00,206,weatherlink.com 1.10,2013-06-10 14:56:00,
2013-06-10 11:11:00,66.6,61.0,29.97,ESE,116,8.0,-999.0,81,-99.99,,,0.00,230,weatherlink.com 1.10,2013-06-10 15:11:00,
2013-06-10 11:26:00,66.5,61.0,29.97,East,101,4.0,-999.0,83,-99.99,,,0.00,257,weatherlink.com 1.10,2013-06-10 15:26:00,
2013-06-10 11:41:00,66.7,62.0,29.97,East,90,6.0,-999.0,85,-99.99,,,0.00,287,weatherlink.com 1.10,2013-06-10 15:41:00,
2013-06-10 11:56:00,67.4,63.0,29.97,East,85,6.0,-999.0,86,-99.99,,,0.00,327,weatherlink.com 1.10,2013-06-10 15:56:00,
2013-06-10 12:26:00,67.8,63.0,29.96,ESE,105,10.0,-999.0,83,-99.99,,,0.00,253,weatherlink.com 1.10,2013-06-10 16:26:00,
2013-06-10 13:11:00,65.9,63.0,29.94,ESE,110,9.0,-999.0,90,-99.99,,,0.01,156,weatherlink.com 1.10,2013-06-10 17:11:00,
2013-06-10 13:26:00,65.8,63.0,29.94,East,89,8.0,-999.0,90,-99.99,,,0.01,172,weatherlink.com 1.10,2013-06-10 17:26:00,
2013-06-10 13:41:00,65.9,63.0,29.93,East,91,3.0,-999.0,91,-99.99,,,0.02,181,weatherlink.com 1.10,2013-06-10 17:41:00,
2013-06-10 13:56:00,66.0,63.0,29.93,East,89,8.0,-999.0,91,-99.99,,,0.02,149,weatherlink.com 1.10,2013-06-10 17:56:00,
2013-06-10 14:26:00,66.0,63.0,29.92,ESE,103,7.0,-999.0,91,-99.99,,,0.02,95,weatherlink.com 1.10,2013-06-10 18:26:00,
2013-06-10 14:41:00,65.9,64.0,29.91,ENE,77,9.0,-999.0,92,-99.99,,,0.03,128,weatherlink.com 1.10,2013-06-10 18:41:00,
2013-06-10 14:56:00,65.8,64.0,29.90,East,89,12.0,-999.0,93,-99.99,,,0.05,165,weatherlink.com 1.10,2013-06-10 18:56:00,
2013-06-10 15:11:00,65.5,64.0,29.89,ENE,63,9.0,-999.0,93,-99.99,,,0.06,121,weatherlink.com 1.10,2013-06-10 19:11:00,
2013-06-10 15:41:00,64.5,63.0,29.88,ESE,103,8.0,-999.0,93,-99.99,,,0.09,86,weatherlink.com 1.10,2013-06-10 19:41:00,
2013-06-10 15:56:00,64.3,62.0,29.87,ENE,72,9.0,-999.0,93,-99.99,,,0.10,62,weatherlink.com 1.10,2013-06-10 19:56:00,
2013-06-10 16:12:00,64.2,63.0,29.87,ESE,103,4.0,-999.0,94,-99.99,,,0.10,58,weatherlink.com 1.10,2013-06-10 20:12:00,
2013-06-10 16:26:00,64.2,63.0,29.86,East,99,4.0,-999.0,94,-99.99,,,0.13,76,weatherlink.com 1.10,2013-06-10 20:26:00,
2013-06-10 16:56:00,64.2,63.0,29.85,ESE,117,12.0,-999.0,94,-99.99,,,0.14,56,weatherlink.com 1.10,2013-06-10 20:56:00,
2013-06-10 17:12:00,64.1,62.0,29.85,East,91,9.0,-999.0,94,-99.99,,,0.15,74,weatherlink.com 1.10,2013-06-10 21:12:00,
2013-06-10 17:27:00,64.0,63.0,29.84,East,86,6.0,-999.0,95,-99.99,,,0.16,74,weatherlink.com 1.10,2013-06-10 21:27:00,
2013-06-10 17:42:00,63.8,62.0,29.83,East,79,8.0,-999.0,95,-99.99,,,0.17,47,weatherlink.com 1.10,2013-06-10 21:42:00,
2013-06-10 17:57:00,63.7,62.0,29.83,East,87,7.0,-999.0,95,-99.99,,,0.17,33,weatherlink.com 1.10,2013-06-10 21:57:00,
2013-06-10 18:12:00,63.7,62.0,29.82,ENE,77,8.0,-999.0,95,-99.99,,,0.17,88,weatherlink.com 1.10,2013-06-10 22:12:00,
2013-06-10 18:27:00,63.9,63.0,29.81,ESE,113,8.0,-999.0,95,-99.99,,,0.17,42,weatherlink.com 1.10,2013-06-10 22:27:00,
2013-06-10 18:42:00,63.9,63.0,29.81,East,81,8.0,-999.0,95,-99.99,,,0.17,35,weatherlink.com 1.10,2013-06-10 22:42:00,
2013-06-10 18:57:00,63.9,63.0,29.80,ESE,119,7.0,-999.0,95,-99.99,,,0.17,25,weatherlink.com 1.10,2013-06-10 22:57:00,
2013-06-10 19:12:00,63.9,63.0,29.80,East,90,5.0,-999.0,95,-99.99,,,0.19,23,weatherlink.com 1.10,2013-06-10 23:12:00,
2013-06-10 19:27:00,63.8,62.0,29.79,East,93,4.0,-999.0,95,-99.99,,,0.20,21,weatherlink.com 1.10,2013-06-10 23:27:00,
2013-06-10 19:42:00,63.8,62.0,29.78,East,84,7.0,-999.0,95,-99.99,,,0.21,18,weatherlink.com 1.10,2013-06-10 23:42:00,
2013-06-10 19:57:00,63.8,62.0,29.77,ESE,108,6.0,-999.0,95,-99.99,,,0.22,9,weatherlink.com 1.10,2013-06-10 23:57:00,
2013-06-10 20:12:00,63.8,62.0,29.77,East,92,7.0,-999.0,95,-99.99,,,0.23,9,weatherlink.com 1.10,2013-06-11 00:12:00,
2013-06-10 20:27:00,63.9,63.0,29.76,East,88,7.0,-999.0,95,-99.99,,,0.23,5,weatherlink.com 1.10,2013-06-11 00:27:00,
2013-06-10 20:43:00,64.0,63.0,29.76,East,99,3.0,-999.0,95,-99.99,,,0.23,0,weatherlink.com 1.10,2013-06-11 00:43:00,
2013-06-10 20:57:00,64.0,63.0,29.75,East,94,7.0,-999.0,96,-99.99,,,0.24,0,weatherlink.com 1.10,2013-06-11 00:57:00,
2013-06-10 21:12:00,64.0,63.0,29.75,ESE,116,6.0,-999.0,96,-99.99,,,0.24,0,weatherlink.com 1.10,2013-06-11 01:12:00,
2013-06-10 21:27:00,64.0,63.0,29.75,East,98,6.0,-999.0,96,-99.99,,,0.24,0,weatherlink.com 1.10,2013-06-11 01:27:00,
2013-06-10 21:42:00,64.0,63.0,29.74,ESE,115,5.0,-999.0,96,-99.99,,,0.24,0,weatherlink.com 1.10,2013-06-11 01:42:00,
2013-06-10 21:57:00,63.9,63.0,29.74,ESE,116,6.0,-999.0,95,-99.99,,,0.24,0,weatherlink.com 1.10,2013-06-11 01:57:00,
2013-06-10 22:12:00,64.0,63.0,29.74,East,96,4.0,-999.0,95,-99.99,,,0.24,0,weatherlink.com 1.10,2013-06-11 02:12:00,
2013-06-10 22:27:00,64.0,63.0,29.74,East,96,5.0,-999.0,95,-99.99,,,0.24,0,weatherlink.com 1.10,2013-06-11 02:27:00,
2013-06-10 22:42:00,64.1,63.0,29.74,ESE,114,7.0,-999.0,95,-99.99,,,0.24,0,weatherlink.com 1.10,2013-06-11 02:42:00,
2013-06-10 22:57:00,64.3,63.0,29.73,East,86,7.0,-999.0,95,-99.99,,,0.24,0,weatherlink.com 1.10,2013-06-11 02:57:00,
2013-06-10 23:12:00,64.4,63.0,29.72,East,84,6.0,-999.0,94,-99.99,,,0.24,0,weatherlink.com 1.10,2013-06-11 03:12:00,
2013-06-10 23:27:00,64.4,63.0,29.72,SE,132,7.0,-999.0,94,-99.99,,,0.24,0,weatherlink.com 1.10,2013-06-11 03:27:00,
2013-06-10 23:42:00,64.4,63.0,29.72,East,101,4.0,-999.0,94,-99.99,,,0.24,0,weatherlink.com 1.10,2013-06-11 03:42:00,
2013-06-10 23:57:00,64.2,63.0,29.70,East,94,5.0,-999.0,94,-99.99,,,0.27,0,weatherlink.com 1.10,2013-06-11 03:57:00,